Weather in Gerasimovka

Russia / Belgorod Oblast     50°02′34″N   38°08′22″E
temp.,
°C
wind,
m/s
gust,
m/s
humid.,
%
clouds,
%
prec.,
mm/h
press.,
hPa
HPBL,
m
18 january, tue
tue1800:00+1sw8149898 0.6 997904
03:00−1sw71394100 1.1 997625
06:00−2ssw71394100 0.3 996618
09:00−1w5996100 0.8 997482
12:00−2wsw4794100 0.1 1000504
15:00−3w5790100 0.1 1002630
18:00−8sw379674 0.0 1005117
21:00−8sw369777 0.2 1007156
19 january, wed
wed1900:00−11s229878 0.1 101123
03:00−14wnw1110094 0.1 10139
06:00−16nne11100100 0.0 10159
09:00−12nw229776 0.1 101750
12:00−7n359397 0.1 1018300
15:00−6n349497 0.3 1019340
18:00−9nnw259778 0.1 1020109
21:00−15n2210081 0.2 102110
20 january, thu
thu2000:00
03:00−15ese009871 0.1 102210
06:00−17sse1110090 0.0 10219
09:00
12:00−10s479473 0.0 1021228
15:00−8s499490 0.0 1019354
18:00−10sse4119622 0.0 1019173
21:00−9s513935 0.0 1018232
21 january, fri
fri2100:00−8s61590100 0.0 1017376
03:00−6sse71692100 0.0 1016514
06:00−5sse81793100 0.1 1013608
09:00−3sse81895100 2.1 1011804
12:00−1sse81596100 0.6 1010792
15:00+1ssw71397100 0.9 1008935
18:00−1sw51088100 0.1 1010413
21:00−4sw4109398 0.1 1012250
22 january, sat
sat2200:00−8ssw369676 0.0 101484
03:00−11s349759 0.0 101451
06:00−12ssw229859 0.0 101517
09:00−12s229885 0.0 101619
12:00−5ssw2392100 0.0 1016144
15:00−5ssw119471 0.0 101610
18:00−11se119852 0.0 101810
21:00−13sse1110078 0.0 10209